Flag for U.S.A. Weather past 2 weeks in Kilgore, Texas, U.S.A.

Now
47 °F

Low clouds.


Feels Like: 46 °F
Forecast: 39 / 54 °F
Wind: 3 mph from Northeast

Location: Gregg County Airport

Current Time: Dec 20, 2014 at 2:16:45 AM

Latest Report: Dec 20, 2014 at 1:53 AM


Visibility: 7 mi

Pressure: 30.18 "Hg

Humidity: 90%

Dew point: 44 °F

Location of KilgoreLocation

Historic Weather in Kilgore — Graph

°F

Kilgore temperature yesterday

Maximum temperature yesterday: 50 °F (at 3:53 PM)
Minimum temperature yesterday: 47 °F (at 10:53 PM)
Average temperature yesterday: 48 °F

Past Weeks' High & Low Weather Summary

 TemperatureHumidityPressure
High77 °F (Dec 5, 1:53 PM)100% (Dec 9, 8:53 AM)30.43 "Hg (Dec 9, 8:53 AM)
Low35 °F (Dec 17, 1:53 AM)31% (Dec 15, 3:53 PM)29.82 "Hg (Dec 15, 3:53 AM)
Average53 °F79%30.19 "Hg
* Reported Dec 5 12:53 AM — Dec 20 12:53 AM, Kilgore, Weather by CustomWeather, © 2014

Note: Actual official high and low records may vary slightly from our data, if they occured in-between our weather recording intervals... More about our weather records

Advertising

Kilgore weather history for previous 24 hours

 ConditionsComfort  
Time TempWeatherWind HumidityBarometerVisibility
12:53 AM
Dec 20
47 °FLow clouds.3 mph90%30.19 "Hg7 mi
11:53 PM
Dec 19
47 °FFog.3 mph90%30.20 "Hg5 mi
10:53 PM47 °FFog.5 mph90%30.20 "Hg4 mi
9:53 PM48 °FLow clouds.7 mph86%30.19 "Hg9 mi
8:53 PM48 °FOvercast.6 mph86%30.18 "Hg10 mi
7:53 PM48 °FLow clouds.7 mph86%30.17 "Hg8 mi
6:53 PM48 °FFog.8 mph89%30.16 "Hg6 mi
5:53 PM49 °FFog.7 mph86%30.15 "Hg6 mi
4:53 PM50 °FMostly cloudy.7 mph83%30.13 "Hg10 mi
3:53 PM50 °FMostly cloudy.6 mph86%30.12 "Hg10 mi
2:53 PM49 °FLow clouds.10 mph86%30.11 "Hg10 mi
1:53 PM49 °FLow clouds.7 mph90%30.10 "Hg10 mi
12:53 PM49 °FLow clouds.7 mph90%30.12 "Hg10 mi
12:00 PM49 °FLow clouds.13 mph90%30.11 "Hg10 mi
10:53 AM48 °FLight rain. Fog.9 mph93%30.16 "Hg5 mi
10:00 AM48 °FLight rain. Fog.12 mph89%30.21 "Hg6 mi
8:53 AM48 °FLight rain. Fog.8 mph89%30.23 "Hg2 mi
7:53 AM48 °FLight rain. Low clouds.9 mph89%30.15 "Hg7 mi
6:53 AM48 °FRain. Fog.7 mph89%30.15 "Hg4 mi
5:53 AM49 °FLight rain. Fog.5 mph90%30.11 "Hg4 mi
4:53 AM49 °FFog.6 mph90%30.10 "Hg5 mi
3:53 AM49 °FFog.6 mph90%30.11 "Hg2 mi
2:53 AM49 °FFog.5 mph93%30.12 "Hg1 mi
Weather by CustomWeather, © 2014

See weather overviewHow to use our weather pages